Home   Weather   Nagano   Past weeks

Flag for Japan Past Weather in Nagano, Japan — Yesterday and Last 2 Weeks

Now
30 °F

Chilly.


Feels Like: 25 °F
Forecast: 21 / 38 °F
Wind: 5 mph from Southwest

Location: Nagano

Current Time: Jan 17, 2017 at 2:47:39 am

Latest Report: Jan 17, 2017 at 1:00 am


Visibility: N/A

Pressure: 30.10 "Hg

Humidity: 98%

Dew Point: 29 °F

Location of NaganoLocation

Past Weather in Nagano — Graph

°F

Nagano Temperature Yesterday

Maximum temperature yesterday: 33 °F (at 2:00 pm)
Minimum temperature yesterday: 24 °F (at 2:00 am)
Average temperature yesterday: 27 °F

High & Low Weather Summary for the Past Weeks

 TemperatureHumidityPressure
High50 °F (Jan 10, 3:00 pm)100% (Jan 9, 6:00 am)30.38 "Hg (Jan 9, 6:00 am)
Low20 °F (Jan 15, 12:00 am)34% (Jan 10, 3:00 pm)29.61 "Hg (Jan 13, 1:00 pm)
Average32 °F83%29.96 "Hg
* Reported Jan 2 1:00 am — Jan 17 1:00 am, Nagano, Weather by CustomWeather, © 2017

Note: Actual official high and low records may vary slightly from our data, if they occured in-between our weather recording intervals... More about our weather records

Advertising

Nagano Weather History for the Previous 24 Hours

Scroll right to see more
 ConditionsComfort  
Time TempWeatherWind HumidityBarometerVisibility
1:00 am
Tue, Jan 17
30 °FChilly.5 mph98%30.10 "HgN/A
12:00 am29 °FChilly.2 mph97%30.08 "HgN/A
11:00 pm
Mon, Jan 16
30 °FChilly.3 mph98%30.08 "HgN/A
10:00 pm30 °FChilly.2 mph97%30.07 "HgN/A
9:00 pm29 °FSnow flurries. Overcast.2 mph97%30.06 "Hg2 mi
8:00 pm29 °FChilly.7 mph96%30.04 "HgN/A
7:00 pm29 °FChilly.3 mph97%30.02 "HgN/A
6:00 pm28 °FChilly.1 mph97%30.00 "HgN/A
5:00 pm28 °FChilly.2 mph96%29.97 "HgN/A
4:00 pm29 °FChilly.7 mph91%29.94 "HgN/A
3:00 pm33 °FSnow flurries. Overcast.5 mph64%29.90 "Hg19 mi
2:00 pm33 °FChilly.6 mph69%29.88 "HgN/A
1:00 pm30 °FChilly.7 mph75%29.89 "HgN/A
12:00 pm31 °FChilly.3 mph74%29.90 "HgN/A
11:00 am27 °FChilly.3 mph90%29.95 "HgN/A
10:00 am28 °FChilly.3 mph85%29.96 "HgN/A
9:00 am26 °FSnow flurries. Overcast.1 mph90%29.96 "Hg4 mi
8:00 am24 °FCold.No wind95%29.94 "HgN/A
7:00 am24 °FCold.No wind96%29.93 "HgN/A
6:00 am24 °FCold.1 mph96%29.92 "HgN/A
5:00 am24 °FCold.No wind96%29.89 "HgN/A
4:00 am24 °FCold.1 mph96%29.90 "HgN/A
3:00 am24 °FSnow flurries. Overcast.1 mph95%29.90 "Hg2 mi
2:00 am24 °FCold.1 mph96%29.90 "HgN/A
Weather by CustomWeather, © 2017

See weather overviewHow to use our weather pages